{"data":{"norad_id":64848,"intl_designator":"2025-152G","name":"STARLINK-34748","alt_names":[],"object_type":"PAYLOAD","status":"ACTIVE","operator":null,"country":"US","launch_date":"2025-07-19","launch_site_code":"AFWTR","launch_vehicle":null,"mission":null,"orbit_class":"UNKNOWN","rcs_meters":null,"size_class":null,"mass_kg":null,"dimensions":null,"purposes":["comms"],"wikipedia_slug":null,"has_3d_model":false,"image_url":null,"decayed_at":null,"tle_current":{"epoch":"2026-09-20T13:41:05.058816Z","epoch_age_seconds":118197,"freshness":"FRESH","line1":"1 64848U 25152G   26263.57019744  .00014639  00000+0  45466-3 0  9991","line2":"2 64848  97.2813 114.1119 0002336  88.3260 271.8250 15.33458588 64837","mean_motion":15.33458588,"eccentricity":0.0002336,"inclination_deg":97.2813,"raan_deg":114.1119,"arg_perigee_deg":88.326,"mean_anomaly_deg":271.825,"bstar":0.00045466,"rev_number":6483,"period_min":93.905372552519,"perigee_km":463.90407220386,"apogee_km":467.1014206934,"semimajor_km":6843.6397464486,"source":"CELESTRAK","updated_at":"2026-09-21T09:00:35.449573Z"}}}